RH
26 28 30 35 41 51 62 73 85 93 100 103 105 106 103 101 101 101 103 104 103 102 102 102 102 102 103 102 100 100 102 102 100 99 101 100 99 100 99 94 89 82 69 61 61 68 77 85 92 98 102 106 108 109 109 107 104 103 105 106 106 105 103 104 104 102 104 105 106 108 106 104 106 104 103 104 101 103 103 99 102 105 102 101 105
26 27 29 31 33 39 48 59 71 80 87 93 98 103 105 105 104 104 105 105 102 102 102 101 100 100 100 100 100 100 100 100 100 99 100 101 101 103 103 101 100 98 92 84 75 71 71 74 77 81 85 91 96 102 106 107 104 102 103 105 107 109 108 104 102 102 103 104 108 109 106 105 107 105 106 106 102 101 102 104 105 103 102 103 105
26 26 27 29 31 33 36 44 54 65 73 80 86 91 95 98 101 103 105 105 104 103 103 104 104 103 104 105 106 105 104 104 104 104 104 103 103 104 103 102 103 104 104 101 94 86 80 77 74 70 67 68 72 78 85 90 93 93 94 96 98 102 108 108 104 101 101 102 104 105 104 105 106 106 107 106 103 102 102 105 105 101 101 103 101
24 26 27 27 29 31 33 35 40 48 56 64 71 77 80 83 85 88 91 93 96 98 100 103 104 104 103 102 101 98 96 95 95 97 98 97 96 96 95 95 95 95 94 91 88 86 83 79 77 72 66 63 63 63 64 67 69 71 73 76 78 81 88 94 94 92 90 91 93 96 97 99 100 101 103 102 101 102 102 101 101 99 97 97 95
23 25 26 27 28 29 31 33 35 37 41 46 52 59 65 70 73 75 75 75 76 79 82 85 87 88 87 83 81 79 76 75 76 79 83 86 88 88 85 81 78 77 75 75 77 80 81 82 81 76 70 67 65 62 60 59 58 58 59 60 61 62 63 67 69 69 70 72 75 80 84 88 92 94 95 97 98 100 101 102 102 102 101 100 101
25 26 26 27 28 28 29 30 32 34 36 37 39 43 48 54 60 64 66 65 65 65 66 68 70 71 72 71 71 69 68 68 67 68 70 73 76 76 75 73 71 70 70 71 71 72 75 76 76 73 69 67 65 61 58 56 54 53 54 53 52 52 53 54 54 55 56 58 60 64 67 71 75 79 82 85 88 92 96 99 99 101 103 104 105
25 26 27 27 27 28 28 29 30 31 33 34 35 36 39 41 45 49 53 55 57 58 59 60 60 60 61 64 67 69 70 71 69 66 63 63 63 64 64 65 65 67 70 71 73 74 77 78 78 77 75 71 68 64 60 58 54 52 50 49 48 48 49 51 53 54 56 57 59 61 63 64 66 70 73 75 79 83 86 89 92 96 100 102 104
28 27 26 26 26 26 26 27 28 29 30 31 32 33 35 37 38 40 42 45 47 49 51 53 54 55 55 56 58 60 63 66 66 65 64 64 64 64 62 61 62 64 66 68 71 74 77 79 80 80 79 78 75 72 67 63 59 56 54 51 52 53 55 56 57 60 61 62 64 66 67 70 73 76 77 77 80 82 82 84 89 94 97 99 102
36 34 32 30 29 28 27 26 26 26 27 27 28 30 32 34 35 36 37 39 40 42 43 44 45 47 48 49 49 49 51 52 52 53 55 57 59 61 61 61 61 63 66 68 69 70 72 73 74 75 76 77 76 74 72 68 66 66 65 64 65 67 67 66 64 65 64 64 67 68 69 73 78 80 81 82 85 86 86 89 93 97 100 102 104
36 36 36 35 34 33 32 31 30 29 29 28 27 27 29 30 31 32 32 34 35 37 38 39 40 41 42 43 44 43 43 42 41 41 44 46 49 52 56 59 62 65 70 74 76 77 77 76 77 78 78 77 75 73 71 70 70 72 74 74 75 75 74 73 71 68 66 66 67 67 68 72 74 75 77 81 83 83 84 88 92 95 97 98 100
38 37 35 34 34 33 33 33 33 32 32 32 31 30 30 30 30 31 30 30 31 32 33 35 36 38 39 41 42 43 43 41 40 39 41 43 46 49 53 57 61 65 69 74 78 79 78 78 79 80 79 78 76 74 73 73 74 75 76 76 77 77 76 76 75 72 71 72 72 72 73 76 76 76 81 86 87 86 87 90 91 91 89 90 93
43 42 41 39 38 36 35 34 34 33 32 32 32 31 30 30 31 31 32 32 32 32 32 33 33 34 36 37 38 40 41 42 42 42 43 44 46 48 52 55 59 64 67 69 72 72 73 74 75 77 78 76 75 74 74 74 73 73 74 75 75 75 73 72 73 73 73 74 77 79 79 80 80 82 88 92 92 92 91 89 87 86 84 85 85
42 42 42 41 40 39 38 37 36 35 34 33 32 31 31 30 30 30 30 31 32 33 34 34 35 35 35 35 35 35 36 36 37 38 39 39 41 42 45 48 52 56 59 62 65 67 69 71 72 74 75 74 73 72 71 70 70 70 70 71 71 70 68 67 68 69 68 69 74 77 76 74 76 80 82 83 83 83 80 76 74 72 71 69 65
40 40 40 40 39 38 37 36 35 34 33 32 31 30 30 30 31 31 31 31 31 31 31 32 32 33 34 35 36 35 35 35 35 36 37 37 37 38 39 41 42 44 46 47 48 50 51 53 55 56 56 56 56 55 54 53 53 54 54 56 56 55 53 53 54 54 54 55 58 60 59 58 61 64 63 62 62 61 59 58 56 54 52 50 49
36 36 37 37 37 37 36 35 34 33 31 30 30 29 29 28 28 28 29 30 30 30 31 30 30 30 30 31 32 32 33 33 35 36 38 39 39 39 40 41 42 42 42 41 41 41 40 40 40 40 39 38 37 36 36 36 36 37 38 39 39 39 39 40 40 39 40 41 42 44 45 46 47 48 48 48 48 48 48 47 47 47 46 46 46
35 34 34 34 33 33 33 32 32 31 30 30 29 28 28 27 27 26 25 25 26 26 27 28 28 28 28 29 30 30 30 31 32 33 35 36 38 39 40 41 43 43 41 39 38 38 38 37 37 36 35 34 32 31 30 30 31 32 33 34 34 34 35 35 35 35 36 37 39 41 42 43 43 43 44 45 46 46 46 46 47 47 47 48 48
35 34 33 32 31 30 30 29 29 28 27 27 27 26 26 26 25 25 24 23 23 23 23 24 24 25 27 29 31 32 32 32 32 31 31 32 33 35 37 38 39 39 38 36 35 35 35 34 34 33 33 32 30 29 29 29 30 31 32 32 32 33 34 33 33 34 35 37 39 41 42 43 44 44 45 46 46 46 48 50 51 51 52 53 53
36 35 33 32 31 30 29 28 27 26 25 24 24 24 23 23 23 22 22 22 22 22 22 22 22 22 23 25 28 31 32 33 34 34 33 33 33 34 35 35 35 36 35 34 34 33 31 30 29 29 29 29 29 28 28 28 29 30 30 30 31 32 31 31 31 33 36 38 39 40 41 43 45 46 46 48 49 50 52 54 55 55 56 56 55
38 36 35 33 32 31 30 28 27 25 24 22 22 21 21 21 21 20 20 20 19 19 19 19 20 20 20 21 21 23 25 27 31 34 35 36 37 37 37 36 36 36 35 35 35 34 33 31 31 31 31 31 31 31 30 30 30 31 30 30 31 32 30 31 33 35 37 38 39 40 41 44 46 47 48 49 51 53 54 56 56 56 55 54 53
41 39 36 33 33 32 31 30 28 25 23 21 20 19 19 19 19 19 20 19 19 19 19 19 19 19 18 19 19 20 21 22 23 26 29 32 35 37 37 37 36 36 36 35 36 36 35 34 33 33 33 33 32 31 30 29 29 29 29 30 31 31 31 33 36 36 37 39 40 41 42 44 46 48 49 49 51 52 53 53 52 52 52 52 52
45 42 39 35 34 33 33 32 30 27 25 22 21 20 20 19 20 20 20 20 20 20 20 20 20 20 19 19 19 19 20 20 20 21 22 24 28 31 34 36 38 39 39 39 39 39 39 37 36 35 34 33 33 31 30 28 27 26 26 26 26 27 29 32 34 35 37 38 39 40 41 43 46 47 48 49 51 51 51 51 51 51 53 55 57
47 45 43 39 36 34 33 33 33 31 29 27 25 25 24 24 24 23 22 21 21 21 22 22 22 22 22 22 22 22 22 22 22 23 23 24 26 28 31 34 37 39 41 42 42 42 41 39 37 36 35 34 33 32 31 31 30 28 27 25 25 26 28 30 31 32 34 35 37 38 40 42 45 48 50 52 53 53 53 53 53 55 58 60 61
51 49 47 44 41 38 36 35 35 35 35 34 32 30 30 30 30 31 30 28 26 25 25 26 27 27 27 27 26 26 26 26 27 28 29 30 32 33 35 37 38 41 42 43 42 42 41 41 39 37 36 35 33 31 31 30 29 28 28 27 27 29 30 30 30 31 32 34 36 38 40 44 48 51 54 56 57 56 55 56 57 60 63 62 61
55 53 51 49 47 44 41 39 38 37 37 37 36 36 36 35 35 36 37 37 36 35 34 34 34 35 36 38 37 37 36 36 36 38 39 40 41 42 43 44 43 43 43 42 41 40 39 38 36 35 33 31 30 28 27 26 26 25 25 25 26 28 29 30 30 31 32 34 36 38 42 45 49 53 55 56 55 55 56 59 62 63 62 64 70
59 57 55 53 51 50 48 47 45 44 43 42 41 40 39 39 39 40 41 42 42 43 43 42 42 42 42 44 46 47 47 47 47 48 50 51 51 50 49 48 46 44 42 40 37 35 33 31 30 28 27 25 24 23 22 21 22 22 22 23 24 25 26 28 29 30 31 32 34 37 41 45 49 51 51 51 53 57 60 62 62 65 72 83 94
63 61 59 56 55 54 53 52 50 49 50 50 51 49 47 44 42 41 41 42 43 45 46 47 48 48 47 46 46 47 48 49 50 52 54 54 54 53 51 49 47 43 39 36 33 31 29 27 26 25 24 23 22 21 20 20 21 22 23 25 26 26 27 28 30 32 32 32 35 39 42 45 46 47 50 53 57 60 62 65 73 85 95 98 91
69 67 64 61 59 57 56 56 55 54 53 53 53 53 53 53 51 49 46 44 43 43 43 44 45 47 47 47 46 46 47 48 49 50 52 53 53 52 50 48 45 40 36 33 31 28 27 26 25 25 25 25 24 23 22 22 22 23 24 27 28 29 31 32 35 39 41 42 43 44 45 46 49 52 56 59 61 65 74 86 96 98 91 76 61
75 75 72 69 66 62 60 59 59 59 59 57 55 54 53 54 56 57 57 55 53 49 46 44 42 42 42 42 41 41 42 45 47 49 51 51 51 50 49 46 42 38 34 31 29 27 26 25 26 28 29 30 30 30 28 26 25 26 27 29 31 33 35 38 40 44 47 47 48 51 54 58 61 63 65 69 77 88 97 98 90 76 61 50 44
82 81 81 79 76 72 68 64 62 61 60 60 61 60 58 56 55 56 58 59 59 57 54 51 48 45 42 40 38 36 34 35 39 45 50 53 53 51 49 46 41 36 33 30 27 26 26 26 27 30 33 34 35 35 34 32 32 32 33 34 36 39 43 46 48 50 52 54 57 62 66 70 73 78 85 92 97 96 87 74 60 51 46 43 43
84 84 84 84 83 80 76 72 68 65 62 60 60 61 61 61 60 59 58 57 56 55 53 51 50 48 46 44 42 39 36 33 32 35 41 49 55 55 51 47 41 35 31 29 27 26 26 27 29 32 37 40 41 42 42 41 40 40 40 41 44 47 51 55 58 59 60 62 65 70 75 82 90 96 97 91 82 69 58 51 47 45 44 43 43
82 84 86 87 87 85 82 79 76 72 68 64 61 60 59 60 60 61 60 58 56 53 51 49 48 46 45 43 42 41 40 38 35 31 31 38 48 56 55 50 43 35 30 28 28 27 27 29 31 34 39 44 48 50 51 50 49 48 47 48 51 54 57 60 63 64 67 71 76 82 88 92 90 84 74 64 56 51 48 46 45 44 44 45 46
79 82 85 87 88 88 87 85 83 80 77 72 67 64 62 60 60 60 61 60 58 56 53 50 47 45 43 41 39 38 39 39 38 35 31 31 37 49 57 55 47 38 32 29 29 28 29 30 32 35 40 45 49 53 57 59 59 58 59 59 61 64 67 69 72 75 79 82 83 82 78 72 64 57 53 50 48 46 45 44 45 46 46 47 46
79 81 83 83 85 86 87 87 85 84 82 79 75 71 67 65 65 63 61 61 60 58 55 52 49 45 42 40 37 36 36 36 36 36 34 32 33 41 53 58 53 42 34 31 31 31 31 32 33 36 41 45 50 54 57 60 63 65 67 69 70 72 73 74 75 74 72 68 64 59 55 52 49 48 46 45 43 43 44 45 46 46 46 46 46
81 81 81 82 83 83 84 85 85 83 82 81 79 77 74 71 69 67 66 64 62 60 57 54 51 48 44 41 39 37 36 36 35 34 33 33 32 35 45 56 57 48 38 33 33 33 34 35 36 38 42 46 51 55 57 59 61 63 64 65 64 64 62 60 57 54 52 49 48 48 47 46 45 43 42 42 43 44 45 46 46 47 48 48 47
86 84 82 81 81 81 81 82 82 82 82 81 80 80 79 75 72 70 69 68 66 64 61 57 54 50 47 43 40 39 37 36 35 33 32 33 33 33 38 49 57 53 42 36 35 36 37 38 39 40 42 45 48 50 51 51 51 51 51 50 49 48 47 46 45 45 45 45 45 44 42 41 40 41 42 44 45 46 47 48 50 50 50 48 47
90 89 86 83 81 80 79 79 79 79 79 80 80 81 81 79 76 73 71 70 68 66 64 61 57 52 47 43 40 38 37 36 35 33 33 33 34 34 35 42 53 56 47 39 37 39 40 41 41 41 42 43 43 43 43 43 43 43 43 44 44 44 44 44 44 43 43 42 41 40 40 41 43 45 47 48 48 49 50 50 50 50 49 49 48
97 95 94 90 85 81 79 78 78 77 77 78 79 79 80 80 79 77 74 73 71 69 66 64 61 55 49 44 40 37 37 37 35 34 35 35 36 36 35 40 51 58 53 42 39 41 43 44 44 43 43 43 44 44 45 44 43 42 42 42 42 42 42 41 41 40 39 39 40 41 44 47 49 50 50 50 50 50 51 53 54 55 56 56 54
105 103 102 99 95 90 86 82 80 79 77 77 78 79 79 81 81 80 77 75 74 71 68 66 64 61 55 49 43 39 38 38 37 36 36 38 39 39 37 39 49 59 58 48 41 43 45 45 45 45 45 46 46 46 46 45 42 41 40 39 39 39 39 39 39 39 40 42 45 49 52 53 52 51 50 50 52 55 57 59 61 61 61 60 57
108 108 107 106 103 100 96 91 86 82 79 78 79 80 80 80 82 82 81 78 76 74 71 68 66 64 60 54 49 43 39 38 38 37 37 39 41 42 41 40 46 58 63 54 44 44 46 47 46 47 47 47 48 47 44 42 40 39 38 38 37 38 38 39 40 42 46 50 53 55 56 54 53 53 54 56 59 61 61 61 61 60 60 58 56
107 108 108 108 107 106 103 99 95 90 85 81 80 81 81 81 82 83 83 80 76 75 73 70 67 65 61 57 52 47 43 40 39 39 39 39 40 43 45 43 44 54 64 61 50 44 46 47 47 47 48 48 48 46 42 40 39 38 37 37 38 38 39 41 45 49 53 57 58 57 57 57 57 59 62 64 65 64 63 62 62 61 60 60 59
104 105 107 108 109 107 105 102 99 96 93 88 84 82 82 82 82 82 82 80 76 75 74 72 69 65 61 57 54 50 46 42 40 40 41 40 38 40 45 46 44 50 62 66 57 47 45 47 47 47 47 47 46 44 42 40 38 38 37 37 38 39 41 45 50 55 58 60 60 59 59 60 64 68 70 70 70 68 66 66 66 66 66 66 64
102 103 106 109 111 109 105 101 99 97 95 92 88 84 83 84 83 81 81 80 76 74 75 74 71 66 62 58 55 53 50 46 42 41 42 42 38 36 39 45 46 47 55 66 66 54 45 45 47 47 47 47 45 43 42 41 39 38 38 37 37 39 43 48 53 57 60 61 61 61 63 66 72 76 78 77 76 74 72 71 71 70 70 70 67
101 101 101 105 112 113 107 101 100 99 95 92 90 86 84 86 85 81 80 79 76 73 74 76 75 70 64 59 55 53 52 49 44 41 41 43 41 35 32 38 45 47 50 60 68 64 52 45 46 48 47 47 46 43 42 42 41 39 38 37 38 39 44 49 54 58 61 62 62 63 68 74 79 82 83 84 84 83 81 79 76 73 73 73 72
99 98 96 99 109 117 113 105 103 101 95 91 90 88 86 87 87 82 79 79 76 72 73 77 78 75 68 61 56 53 52 51 47 43 41 43 44 39 31 29 37 46 49 53 64 70 63 51 46 48 49 48 47 44 42 42 43 42 39 38 39 40 44 49 55 59 61 62 63 66 72 78 84 87 88 89 92 93 91 87 81 78 77 77 75
96 97 96 96 104 115 117 112 108 103 96 89 87 87 88 89 88 84 81 80 78 73 73 76 80 79 73 65 57 53 52 51 49 45 41 41 44 43 36 27 27 38 47 51 57 68 72 63 51 47 49 50 48 46 43 42 43 44 42 40 39 40 43 47 51 56 59 60 62 67 72 78 83 87 90 93 97 100 98 93 87 84 83 82 79
95 96 98 99 102 109 115 115 110 103 94 87 85 86 90 92 89 85 82 81 79 75 74 77 80 81 77 69 60 54 52 52 50 47 42 41 42 44 41 31 24 27 39 49 54 61 71 73 63 52 48 50 50 48 46 44 43 44 44 43 40 40 42 44 47 51 54 57 61 66 71 75 79 83 87 92 97 101 101 98 95 93 92 88 83
98 98 100 102 104 107 112 113 108 99 92 86 84 87 93 95 90 85 83 82 80 76 74 77 81 82 79 72 63 56 53 53 52 49 44 41 42 44 43 37 27 22 28 41 51 57 65 74 74 63 50 47 50 51 49 47 46 45 45 45 44 41 40 42 46 49 52 55 60 66 71 75 78 80 84 88 92 96 99 99 98 100 101 96 88
105 105 104 105 106 107 109 109 104 96 90 86 85 89 95 96 91 86 84 82 80 77 75 77 81 83 80 74 65 58 55 54 53 51 47 43 42 43 44 40 33 25 23 30 43 53 59 68 76 75 63 51 49 51 51 49 47 46 46 46 46 45 42 42 45 49 52 56 60 66 70 74 76 79 82 85 87 89 91 92 95 101 106 101 90
109 109 108 108 107 104 103 105 102 95 90 88 88 91 96 96 93 89 86 83 81 79 77 78 82 84 81 75 66 58 55 55 54 51 48 44 42 44 44 41 35 30 25 25 32 45 55 62 71 79 78 66 54 50 51 51 48 46 46 46 47 47 46 45 46 48 52 56 60 64 68 70 72 75 78 80 82 85 86 87 93 103 107 101 90
107 107 107 106 104 101 102 104 103 96 92 89 89 92 97 99 96 93 88 85 83 81 78 77 81 84 82 77 68 59 55 56 56 53 48 45 43 44 46 42 36 32 31 29 27 33 46 58 66 75 84 81 68 56 52 52 51 48 46 46 46 47 47 48 49 50 52 55 58 61 64 67 70 73 75 76 78 81 82 87 98 109 110 101 91
99 101 102 102 102 104 106 107 102 95 90 87 88 94 101 102 98 94 90 87 86 84 79 77 82 85 84 78 70 61 56 56 57 55 50 46 44 45 46 44 37 31 33 36 34 29 35 49 61 70 79 85 83 72 60 54 53 52 49 47 46 46 46 47 49 50 52 54 56 58 60 63 68 71 73 74 76 78 82 90 103 112 109 100 91
Wind_Speed
53 55 59 64 68 72 75 78 81 83 85 87 88 89 89 89 89 89 89 89 89 90 90 91 92 93 94 94 95 95 95 95 95 95 94 95 95 94 94 92 90 89 86 83 81 80 81 82 83 84 84 84 85 85 86 87 89 92 95 96 97 99 100 100 100 100 102 105 107 109 110 111 112 113 114 115 117 118 118 119 119 120 120 121 122
51 53 56 60 64 67 72 75 79 81 83 85 87 88 90 91 91 91 92 92 92 92 92 92 93 93 94 95 96 96 97 97 97 97 97 97 97 96 96 94 93 91 90 88 86 84 83 83 83 84 85 85 85 86 87 87 87 89 91 94 96 98 100 100 100 100 101 103 105 106 108 110 111 112 113 114 115 117 117 118 118 119 120 120 121
48 51 54 57 59 63 66 71 75 79 82 83 85 87 88 89 91 91 92 93 93 94 94 94 94 94 95 96 96 96 96 96 96 96 96 96 96 96 95 94 93 92 92 92 91 89 87 86 85 86 86 85 85 87 88 89 90 91 92 94 95 97 99 101 101 100 101 102 104 105 107 108 109 110 111 112 113 114 115 116 117 118 118 119 120
46 49 52 54 57 59 62 66 70 74 78 81 83 85 86 87 88 90 91 92 93 93 94 94 94 95 95 95 95 95 95 95 95 95 95 95 95 95 94 94 94 94 94 93 93 92 90 89 89 89 88 88 88 89 89 90 92 93 94 95 95 97 99 100 101 101 101 102 103 105 106 107 108 109 109 110 111 111 112 113 114 115 116 117 117
43 47 50 52 55 57 60 62 65 69 73 76 79 82 84 86 87 88 89 90 91 91 92 93 94 94 94 94 94 95 95 95 95 95 95 95 95 95 94 94 94 94 94 93 93 93 92 92 92 92 92 91 91 92 92 92 92 93 94 95 96 97 98 99 100 100 101 101 102 104 106 107 108 109 109 110 110 111 111 112 113 113 114 114 115
40 44 47 50 53 55 58 60 62 65 68 71 74 76 79 82 85 87 88 89 89 90 91 92 92 93 94 94 94 94 95 95 95 95 95 95 95 95 95 94 94 94 94 94 94 94 94 94 94 94 94 94 94 94 94 93 93 94 94 95 96 96 96 97 98 99 99 100 101 102 104 105 106 107 108 110 110 111 111 112 112 113 113 113 114
38 41 44 47 50 53 55 57 59 62 64 67 69 71 73 76 79 82 84 86 87 88 89 90 91 91 92 92 93 94 94 95 95 95 94 94 94 94 94 94 94 94 94 94 94 94 95 95 96 96 96 96 96 96 95 95 94 94 94 95 95 95 95 95 96 97 98 98 99 100 102 102 103 104 106 108 108 109 110 111 111 111 112 113 114
34 37 40 43 46 49 51 54 56 59 61 63 64 66 68 71 73 75 78 80 82 84 85 87 87 88 89 89 90 91 92 93 93 93 93 93 93 93 93 93 93 93 93 93 94 94 95 96 96 96 97 97 97 97 96 96 95 95 95 95 95 95 95 96 96 96 97 98 98 99 100 100 101 102 104 106 106 107 109 109 109 110 112 112 113
30 33 35 38 40 43 46 48 51 54 57 59 60 62 64 67 69 71 72 74 76 78 80 82 83 84 85 86 87 88 88 89 90 90 91 91 92 92 92 92 92 92 93 93 94 94 95 95 96 96 96 97 97 97 97 96 96 95 95 95 95 95 96 96 96 96 96 96 97 97 98 98 99 100 101 102 103 104 105 106 106 107 108 109 110
27 30 32 34 36 38 40 43 45 48 50 53 54 56 58 61 64 67 68 70 72 74 76 77 78 80 81 82 83 84 85 86 86 86 87 88 89 90 90 91 92 92 93 93 94 95 95 95 95 95 96 96 96 96 96 95 95 95 95 95 95 95 95 95 96 96 96 95 95 96 96 96 97 98 98 99 100 101 102 103 103 104 105 106 107
26 28 30 32 33 35 36 38 40 42 44 46 48 50 51 54 57 60 62 64 67 69 71 73 75 76 77 79 80 81 82 83 83 83 83 84 85 86 87 88 89 90 90 91 92 93 93 94 94 94 94 94 95 94 94 94 94 93 93 94 94 94 94 95 95 95 95 94 95 95 95 96 97 97 97 98 99 100 101 101 103 104 104 105 106
23 25 28 29 31 33 34 36 38 39 41 43 44 45 47 48 50 52 55 57 59 61 64 66 68 70 72 74 76 77 79 79 79 80 80 80 81 82 82 84 85 86 87 88 89 90 90 91 91 92 92 92 92 92 92 92 92 92 92 92 92 93 94 94 94 94 94 94 94 95 95 96 96 96 97 98 99 100 101 102 102 103 104 104 105
20 22 24 26 28 30 32 34 35 37 39 40 42 43 44 46 47 49 50 52 54 56 58 60 61 63 65 67 69 71 72 73 74 75 76 76 77 77 78 79 80 81 83 84 84 85 86 87 88 88 89 90 90 90 90 90 90 90 90 90 91 92 92 92 93 93 93 93 93 94 95 95 95 96 97 98 99 100 101 101 101 102 102 102 103
19 21 22 24 26 27 29 31 33 34 36 38 39 41 42 44 46 47 49 51 52 54 55 57 58 60 61 63 64 66 66 66 67 68 69 70 71 71 72 73 75 76 77 78 79 80 81 82 82 84 85 86 86 87 87 87 87 87 87 88 89 90 90 91 91 91 91 91 91 92 93 93 93 94 95 96 97 97 98 98 98 98 98 98 98
21 21 22 24 25 26 28 29 31 32 34 35 37 38 40 42 44 46 48 50 52 53 55 56 57 58 59 61 62 63 63 63 64 65 66 67 67 68 69 70 71 73 74 75 75 76 77 78 79 80 81 82 83 83 83 83 83 83 84 85 86 86 87 87 88 87 87 87 87 88 88 89 89 90 91 91 92 92 92 92 92 93 92 92 91
24 24 24 24 25 26 27 29 30 32 33 34 36 37 38 40 42 44 46 48 50 52 54 55 56 57 58 59 60 61 61 62 63 64 65 65 66 67 68 69 70 72 74 74 74 75 76 76 77 78 79 80 81 81 80 80 80 80 80 81 82 82 82 83 83 82 82 82 81 82 83 84 85 85 85 86 86 87 87 87 87 87 87 86 86
28 27 26 25 25 26 27 28 30 31 32 34 35 37 38 40 41 43 44 46 48 49 51 53 54 56 57 58 59 60 61 61 63 63 64 64 65 66 67 68 69 71 73 73 73 74 75 75 76 77 77 78 79 78 77 76 76 76 77 78 78 78 79 79 78 77 77 77 77 78 78 79 80 80 80 81 81 81 81 81 82 82 82 81 81
30 29 28 27 26 26 27 27 28 29 31 32 34 36 37 39 41 42 43 44 45 47 48 50 52 54 55 56 58 59 60 61 62 63 63 63 64 64 65 66 68 69 70 71 71 72 73 73 73 74 74 75 75 75 74 73 73 74 75 75 75 76 76 76 74 74 74 74 74 74 74 75 76 76 76 77 77 77 77 77 78 78 78 78 78
32 31 30 28 27 27 26 26 27 27 28 30 31 32 34 36 38 40 42 43 44 45 46 48 49 51 52 54 55 57 58 59 60 61 62 62 62 63 64 65 66 67 67 68 69 70 71 71 71 71 71 71 72 72 72 72 72 72 73 73 73 74 73 72 71 72 72 72 72 72 72 72 73 74 74 74 74 74 74 74 75 75 75 75 75
33 33 32 29 28 27 26 26 26 26 26 26 27 28 30 31 33 36 38 40 42 43 44 45 46 48 49 50 51 52 53 54 56 57 58 59 60 60 61 62 62 63 64 65 65 66 67 67 68 68 68 68 69 69 70 70 70 70 70 70 70 70 69 68 69 69 69 69 70 70 70 70 70 71 71 71 71 71 72 72 72 72 72 72 72
33 33 33 31 29 28 26 26 26 26 25 25 25 25 26 27 29 30 32 34 36 38 39 41 42 44 45 45 46 47 48 49 50 51 52 53 54 55 57 57 58 59 60 61 62 62 63 64 65 65 66 66 67 68 69 69 69 69 69 69 68 67 66 66 67 67 67 67 67 67 67 67 68 69 69 69 69 69 70 70 70 70 69 69 69
31 32 33 32 31 29 27 26 26 26 26 26 25 25 25 25 26 28 29 30 32 33 34 35 37 38 40 41 42 42 43 44 44 45 46 47 48 50 51 53 54 55 57 58 59 60 61 62 63 63 64 65 66 66 67 68 69 69 69 69 67 66 66 66 66 66 66 66 66 66 66 65 66 66 67 67 67 67 67 67 67 66 66 66 66
31 32 32 33 33 32 30 28 27 27 27 27 27 26 26 26 26 27 28 29 30 31 31 32 33 34 35 36 37 38 39 40 40 41 42 43 44 45 47 49 50 52 53 55 56 58 59 60 61 62 63 64 65 65 66 67 67 68 68 68 66 66 66 66 66 66 66 66 66 65 65 64 64 65 65 65 65 65 65 64 63 62 62 63 63
32 32 33 33 33 33 33 32 30 29 28 28 28 28 27 27 26 26 27 28 29 30 31 31 32 32 32 33 34 35 36 37 37 38 39 40 42 43 45 47 48 50 51 52 54 55 57 58 59 61 62 63 64 65 65 66 66 66 66 66 65 65 65 66 66 66 66 66 65 65 64 63 63 63 63 63 63 62 61 60 59 59 60 60 61
34 34 34 33 33 33 34 34 34 33 32 31 31 31 30 29 28 27 27 28 28 29 30 31 32 32 33 33 33 34 34 35 36 36 37 39 40 42 43 45 47 49 50 50 52 53 54 55 56 58 59 60 61 62 63 63 63 64 64 64 64 64 64 65 65 66 66 65 64 63 62 62 62 62 61 61 59 58 57 57 57 57 57 57 55
34 35 35 35 35 34 34 34 35 35 35 34 34 34 33 32 31 30 29 29 29 29 30 31 32 33 34 34 34 35 35 36 36 37 37 39 40 41 43 44 45 47 48 49 49 51 52 52 53 55 56 57 57 58 59 58 58 58 58 59 60 61 61 62 63 64 64 63 62 61 61 60 60 59 58 56 55 54 54 54 54 53 51 48 46
33 35 36 36 36 36 36 35 35 36 36 36 36 35 35 35 35 35 34 33 33 32 32 32 32 33 34 35 36 36 37 37 38 38 39 40 41 42 42 42 43 45 47 47 47 48 49 49 50 51 52 53 54 54 54 53 52 51 51 53 55 56 57 57 58 58 59 58 58 58 58 57 56 54 53 52 51 51 51 49 48 45 42 39 39
32 33 35 36 37 37 37 37 36 36 36 37 38 37 37 36 36 36 37 37 38 37 37 36 36 35 35 36 37 38 38 38 38 39 40 40 41 42 42 42 42 43 45 45 45 45 46 46 46 47 48 49 50 50 49 48 47 46 46 47 48 50 51 52 52 52 52 52 52 51 51 50 50 49 48 47 46 45 43 41 38 36 35 35 37
31 32 34 35 36 37 38 38 38 38 37 37 37 37 38 38 38 37 37 37 38 38 39 39 39 39 39 38 39 39 39 38 38 38 39 40 41 42 42 42 41 42 43 43 42 42 42 42 43 43 44 44 45 44 44 43 42 41 41 41 42 43 44 44 44 45 45 44 43 42 42 42 42 42 41 39 37 36 34 32 32 32 34 35 37
31 32 33 34 35 36 38 38 39 40 40 39 39 38 37 38 38 38 39 39 40 39 39 39 39 40 40 41 41 41 41 40 39 38 38 38 39 41 42 42 41 41 41 40 39 38 38 39 39 39 39 40 40 39 38 37 36 35 34 34 35 35 36 36 36 36 36 35 34 34 34 34 33 32 31 29 28 28 28 29 31 32 34 36 37
32 32 32 33 34 35 36 38 39 40 40 41 41 41 41 40 39 39 40 41 43 44 43 42 42 41 41 41 41 41 41 41 41 40 38 37 38 39 41 41 41 40 39 38 36 35 35 36 36 36 36 35 35 34 33 31 30 29 29 28 28 28 28 28 28 28 28 27 27 26 25 24 24 23 22 22 23 25 27 29 31 32 33 35 36
32 32 33 33 33 34 35 36 37 38 39 40 41 42 43 43 43 43 42 42 43 45 46 47 46 45 44 43 42 40 40 40 41 41 40 38 37 38 39 40 40 39 38 36 34 33 33 33 34 34 33 31 30 28 27 26 25 24 23 22 21 21 21 21 21 20 19 19 18 17 17 16 17 17 19 21 23 25 27 28 29 30 31 33 34
33 33 33 33 33 34 34 35 36 37 38 39 40 41 41 42 43 44 45 45 45 46 47 48 48 48 48 46 45 44 42 41 41 41 40 39 37 36 37 39 39 38 36 34 33 31 31 31 31 31 29 27 25 24 22 21 19 18 17 16 15 14 13 13 12 12 11 11 11 11 12 13 15 17 19 21 22 23 24 25 27 28 30 32 33
34 34 34 34 34 34 35 35 36 37 37 38 39 40 40 41 41 42 43 45 46 47 48 49 50 50 50 49 48 47 46 45 43 42 41 39 37 35 36 37 37 36 35 33 31 30 29 29 29 28 26 23 21 19 17 15 14 12 10 9 8 7 6 6 6 6 7 8 9 11 13 14 16 17 18 19 20 21 23 25 27 29 30 32 34
35 36 36 35 35 35 36 36 36 37 38 38 38 39 40 41 41 41 41 42 44 45 47 49 50 51 50 50 49 48 47 46 45 43 41 39 37 35 35 35 35 35 34 32 30 28 27 27 26 25 22 20 17 15 13 11 9 8 6 5 5 4 4 5 6 7 8 9 10 12 13 14 14 15 17 18 20 22 24 26 28 30 32 34 35
37 37 37 37 37 37 37 37 37 38 38 39 39 39 40 41 42 42 43 43 43 44 46 48 50 51 51 50 49 48 47 47 45 43 41 38 36 34 34 34 34 34 33 31 29 27 26 25 24 22 20 17 15 13 12 10 9 8 7 6 6 6 6 7 7 8 9 10 11 11 12 13 14 15 17 19 21 23 25 27 29 31 33 35 37
38 39 39 39 39 39 39 38 38 39 39 39 40 40 41 42 43 44 44 44 44 45 45 47 49 52 52 52 51 49 48 47 46 44 41 38 35 34 33 32 32 33 32 30 28 26 25 23 23 21 19 16 15 13 13 12 11 11 10 9 8 8 8 8 8 9 10 10 11 11 12 14 15 16 18 20 22 24 26 28 30 32 35 36 38
40 40 40 40 41 41 41 40 40 40 40 40 41 41 42 43 44 45 46 46 46 46 46 46 48 50 52 53 52 51 48 47 46 44 40 37 34 33 32 31 32 32 32 30 28 26 24 24 23 22 20 18 16 16 15 14 13 13 12 11 10 9 9 9 9 10 10 11 11 13 14 15 16 18 19 21 23 25 28 30 33 35 37 39 41
41 42 42 42 42 42 42 42 42 42 42 41 42 42 43 44 45 46 48 48 47 47 47 46 47 48 50 52 53 52 50 47 46 44 41 36 33 32 31 31 31 31 32 31 29 26 25 25 24 23 21 20 19 18 17 16 15 14 13 13 12 11 11 11 11 11 12 12 13 14 16 17 18 20 21 23 26 28 30 33 35 37 39 41 43
43 43 43 43 44 44 44 44 44 44 43 43 43 43 44 44 45 47 48 49 49 48 48 47 46 47 48 50 51 52 50 48 46 45 41 37 33 31 30 30 30 31 32 32 31 28 27 26 26 25 23 22 21 20 19 18 17 16 15 14 14 13 13 13 13 13 14 15 15 16 17 19 20 22 24 26 28 30 32 34 37 39 41 43 44
45 45 44 45 45 45 46 45 45 45 45 44 44 44 44 45 46 47 48 50 50 49 49 48 47 47 47 48 49 51 51 49 46 44 42 38 34 31 30 30 30 31 32 33 33 31 29 27 27 27 25 24 23 22 21 20 20 19 18 17 17 16 16 16 16 16 17 17 17 18 19 20 22 24 25 27 29 31 33 36 38 40 42 44 46
47 46 46 46 46 47 47 47 47 47 46 46 45 45 45 46 47 48 48 50 51 50 50 50 49 48 47 47 48 49 50 50 47 44 42 40 36 32 31 30 30 31 32 34 34 33 31 29 28 28 28 26 25 24 23 23 22 22 22 21 20 19 19 19 19 19 19 19 20 20 21 22 24 25 27 29 31 33 35 38 40 42 44 46 48
48 48 47 47 47 48 49 49 48 48 48 47 47 46 46 47 48 49 49 50 51 51 50 50 50 49 48 47 47 48 49 50 49 46 43 40 38 34 32 31 30 31 32 34 35 35 33 31 30 30 29 29 28 26 26 25 25 25 25 24 24 23 22 22 22 21 21 22 22 22 23 24 26 27 29 31 33 36 38 40 42 44 46 48 50
49 49 48 48 48 49 50 50 50 50 50 49 48 47 47 48 49 50 50 51 52 52 50 50 51 50 50 48 47 47 48 50 50 47 44 41 39 36 33 31 31 31 31 33 35 36 35 34 32 31 31 31 31 30 29 28 28 28 28 28 27 26 25 25 24 24 24 24 24 25 25 26 28 30 32 34 36 39 41 43 45 46 48 50 51
51 50 49 49 50 51 51 51 51 51 51 50 49 48 48 49 50 50 50 51 53 52 51 50 50 51 50 49 48 48 48 49 50 49 46 42 39 38 35 33 31 31 31 32 34 36 37 36 34 33 32 33 33 32 32 31 31 31 31 31 30 30 29 28 27 27 27 27 27 27 28 29 31 33 35 37 39 41 43 45 47 48 50 51 53
52 51 51 51 52 52 53 53 52 52 52 51 50 48 48 49 51 51 51 52 53 53 52 51 50 50 50 50 49 48 48 49 50 49 48 44 40 38 37 35 33 32 32 32 33 36 38 38 38 36 35 34 34 35 34 34 33 34 34 34 33 33 32 31 31 30 30 30 30 30 31 32 34 36 38 39 41 43 45 46 48 50 51 53 54
53 53 53 53 54 54 54 54 53 53 53 52 51 49 49 50 51 51 51 52 53 53 52 51 50 50 50 50 49 48 48 49 50 50 49 46 42 39 37 36 34 33 32 32 33 35 37 39 40 40 38 37 36 36 37 37 36 36 36 36 36 36 35 34 34 34 34 34 33 33 34 35 37 38 40 42 43 45 46 48 49 51 52 54 55
54 55 55 55 56 56 55 55 54 54 53 52 51 50 50 51 51 52 52 53 53 53 52 51 50 49 50 50 50 49 48 49 50 51 50 48 44 40 37 35 35 33 33 33 33 34 36 39 41 42 41 40 39 38 39 39 39 39 39 39 39 39 38 37 37 37 37 37 37 37 37 38 39 41 42 44 45 47 48 49 51 52 53 54 55
56 56 57 57 57 57 56 55 55 54 54 53 52 51 50 51 51 52 52 53 53 53 52 51 49 49 49 50 50 50 49 49 50 51 51 49 46 41 37 35 34 34 33 33 33 34 35 38 41 43 44 43 42 41 41 41 42 42 41 41 41 41 41 41 40 40 40 40 40 40 40 41 42 43 45 46 47 48 50 51 52 53 53 55 56
56 57 57 57 57 57 56 55 55 55 54 53 52 51 51 51 52 52 53 53 54 54 53 51 49 48 48 49 50 50 49 49 51 52 52 50 47 43 38 35 34 33 33 33 33 33 34 36 39 42 45 46 46 44 44 43 44 44 44 44 44 44 43 43 43 43 43 44 43 43 43 43 44 46 47 48 49 50 51 52 52 53 54 55 57
55 56 57 57 57 56 56 56 55 55 54 53 52 51 51 52 53 53 53 53 53 53 53 51 49 48 48 49 50 51 50 49 50 52 52 51 47 43 39 36 34 32 32 32 33 33 33 35 37 41 45 48 48 48 47 46 46 46 46 47 47 46 46 46 46 46 46 46 46 46 45 46 46 47 48 49 50 51 52 52 53 54 55 56 57
Wind_Direction
241 241 240 241 242 243 243 244 245 245 246 247 248 248 249 249 250 251 252 253 254 255 255 256 257 258 259 260 260 261 262 263 264 265 266 267 268 269 269 270 270 271 269 267 266 264 263 263 263 263 263 262 263 263 262 262 261 261 261 261 261 261 261 261 261 260 261 262 262 263 264 265 266 267 268 268 269 270 271 272 273 274 274 275 275
241 241 241 241 242 243 243 244 245 246 247 247 248 248 249 250 250 251 252 252 253 254 255 256 256 257 258 259 260 261 262 263 263 264 264 265 265 266 267 268 269 270 271 271 270 269 267 265 264 263 262 261 262 262 262 262 262 262 261 261 261 261 262 262 262 262 262 263 263 264 264 265 266 266 267 268 269 270 271 272 272 273 274 274 275
239 240 241 242 243 243 243 244 245 246 247 248 249 249 249 250 250 251 251 252 253 254 254 255 256 256 257 258 259 260 260 261 262 262 263 263 264 265 265 266 267 268 269 269 270 269 269 268 267 266 264 263 263 263 263 263 263 263 263 262 262 262 262 263 263 263 263 263 264 264 265 266 266 267 267 268 269 270 271 271 272 273 273 274 274
238 239 241 242 243 243 244 244 244 245 246 248 249 249 250 251 251 251 252 252 253 253 254 255 255 256 257 258 259 259 260 260 261 261 262 262 263 264 265 265 266 266 267 268 268 269 269 268 268 268 267 267 266 266 265 265 264 264 264 264 263 263 263 263 263 263 263 264 264 264 265 266 266 267 268 268 269 270 270 271 272 272 273 274 275
239 239 240 241 243 244 244 245 245 245 246 247 248 249 250 251 252 253 253 254 254 255 255 256 256 257 258 259 259 260 261 261 261 261 262 262 263 264 264 265 265 266 266 267 267 268 268 268 268 268 268 268 268 267 267 266 266 266 266 266 265 264 264 264 264 264 264 264 264 265 265 265 266 267 267 268 269 269 270 271 271 272 273 274 274
241 241 241 242 243 244 245 246 246 246 247 248 248 249 250 251 252 253 254 255 256 256 257 257 258 259 259 260 261 261 262 262 262 262 262 262 263 264 264 265 266 266 267 267 267 268 268 268 268 268 269 269 269 269 269 268 268 268 267 267 267 266 266 266 266 265 265 265 265 265 265 266 266 267 267 268 268 269 270 270 271 272 273 273 274
245 244 243 243 244 244 245 246 247 248 248 249 250 250 251 251 252 252 253 255 256 257 258 258 259 260 260 260 261 261 262 262 263 263 263 263 264 264 265 265 265 266 266 267 267 268 268 268 269 269 269 270 270 270 270 270 269 269 269 268 268 268 268 268 267 267 267 267 266 266 267 267 267 268 268 268 269 269 270 270 271 272 272 273 274
255 253 251 249 249 248 248 248 249 249 250 250 251 252 252 253 254 254 254 255 256 257 257 258 259 260 260 261 261 261 262 262 263 264 264 265 265 266 266 266 266 266 267 267 267 268 268 269 269 269 269 270 270 270 270 270 270 270 270 270 270 270 270 269 269 268 268 268 268 267 267 268 268 268 268 269 269 270 270 271 271 272 272 273 274
262 261 260 259 257 256 255 254 254 254 254 254 254 253 253 254 255 255 256 256 257 258 258 259 259 260 260 261 261 262 262 262 263 264 264 265 266 266 267 267 267 268 268 268 268 268 268 269 269 269 269 270 270 270 270 271 271 271 271 271 271 271 271 270 270 270 269 269 269 269 269 269 269 269 269 270 270 270 271 271 272 272 273 273 274
265 264 264 263 262 262 261 261 260 260 260 260 259 258 257 256 257 257 257 258 258 258 259 259 260 261 261 262 262 263 263 263 264 264 265 265 266 266 267 267 268 268 268 269 269 269 269 269 269 269 269 269 270 270 270 271 271 271 271 271 271 271 271 271 271 271 271 271 271 271 271 271 271 271 271 271 272 272 272 272 273 273 273 274 274
274 273 272 271 269 268 267 266 265 264 264 263 263 262 261 260 259 259 260 260 260 260 260 260 261 261 261 262 262 263 263 264 265 265 266 266 266 266 267 267 267 268 268 268 268 268 268 269 269 269 269 269 269 270 270 270 271 271 271 271 271 271 271 271 272 272 272 272 272 273 273 272 272 273 273 273 273 273 273 274 274 274 274 275 276
284 283 282 281 279 278 276 274 273 271 269 268 267 266 265 263 262 261 261 261 261 261 261 261 262 262 262 262 262 262 263 263 264 265 266 266 266 267 267 267 267 267 267 267 268 268 268 268 269 269 269 269 270 270 270 270 271 271 271 271 271 271 271 271 271 272 272 272 273 273 273 273 273 274 274 274 274 274 274 274 275 275 276 276 277
291 290 288 287 285 284 282 280 279 277 275 274 272 271 270 269 268 266 265 264 263 262 262 262 262 262 262 262 262 262 263 263 264 265 265 266 266 266 266 266 266 266 266 267 267 267 267 268 268 268 269 269 269 269 269 270 270 270 270 270 270 270 270 271 271 271 271 272 272 272 272 273 273 274 274 274 274 274 275 275 276 276 276 277 277
294 292 290 289 287 286 284 282 281 280 279 277 276 275 273 272 270 269 268 267 266 265 264 264 263 262 262 262 262 262 263 263 264 264 265 265 265 266 266 266 266 266 266 266 266 266 266 266 266 267 267 267 267 267 268 268 268 269 269 269 269 270 270 270 270 271 271 271 271 272 272 273 273 273 273 273 274 274 275 275 276 276 277 277 278
303 298 295 292 290 287 285 283 282 280 279 278 277 276 275 274 272 270 269 268 267 267 266 266 265 264 264 264 264 264 264 263 263 263 264 264 265 265 265 265 266 266 266 266 266 266 266 266 266 266 266 266 267 267 267 267 268 268 269 269 269 269 269 270 270 270 270 271 271 271 272 272 272 272 272 273 273 274 274 275 276 276 277 277 278
315 311 306 302 298 293 290 287 285 282 281 279 277 275 274 272 271 270 270 269 269 268 267 267 267 266 266 266 266 266 265 265 265 264 263 264 264 264 265 265 266 266 266 266 266 266 267 267 267 268 268 268 268 269 269 269 269 270 270 269 269 269 269 269 270 270 270 270 271 271 271 271 271 271 272 272 273 273 274 275 276 276 277 278 278
322 319 316 312 307 302 297 293 289 286 284 282 280 278 276 274 273 272 270 270 270 270 270 270 269 269 268 268 267 267 266 266 265 265 265 265 264 264 265 265 265 266 267 267 267 268 268 268 268 269 269 270 270 271 271 271 271 271 271 270 270 270 270 270 270 270 271 271 271 270 270 271 271 272 272 272 273 274 275 275 276 277 278 278 279
325 325 324 322 318 313 307 302 297 293 289 285 283 281 279 278 276 275 273 272 270 270 269 269 269 269 268 267 266 266 265 265 265 266 266 266 266 266 266 266 267 267 268 269 269 269 269 270 270 271 271 272 272 273 273 272 272 272 271 271 271 271 270 271 271 271 271 271 271 271 271 271 271 272 272 273 274 275 275 276 277 277 278 279 280
328 329 329 328 326 322 317 312 308 302 297 292 288 285 282 280 278 277 275 274 273 272 271 271 270 269 269 268 267 266 266 265 265 265 265 266 266 267 267 268 268 269 270 270 271 272 272 273 273 274 274 274 274 274 273 273 272 271 271 271 271 271 271 272 272 272 271 271 271 271 271 271 272 273 273 274 274 275 276 276 277 278 279 280 281
330 330 331 331 332 330 327 323 320 315 309 303 297 291 287 284 281 279 278 278 277 276 276 275 274 273 272 271 270 269 268 267 267 266 265 265 265 266 267 268 269 270 270 271 272 273 274 274 275 275 275 275 274 274 273 273 272 271 271 270 270 270 271 271 271 271 271 271 271 271 271 272 272 272 273 274 274 275 276 276 277 278 280 281 283
333 332 333 334 335 335 333 332 330 328 325 320 314 307 300 294 290 287 284 283 282 281 280 279 279 278 277 276 275 274 272 271 270 270 269 268 268 268 268 269 270 271 272 272 273 273 274 274 274 274 274 274 274 274 274 274 273 272 272 271 270 270 270 270 269 269 270 270 270 270 270 271 271 272 273 274 275 275 276 277 279 280 282 284 285
335 335 336 336 336 337 337 338 338 338 338 335 331 325 318 312 307 302 297 293 290 288 287 285 284 283 282 281 280 279 278 277 276 275 274 273 273 272 272 271 271 272 273 273 274 275 275 276 276 276 276 276 275 275 275 274 274 273 273 272 271 271 270 269 268 268 268 268 269 269 270 270 271 272 273 274 275 276 277 279 281 283 285 286 287
338 338 339 339 338 339 340 341 342 343 344 344 343 339 334 327 321 315 311 306 302 298 295 292 290 288 286 285 283 282 281 280 279 278 277 276 275 275 275 274 274 274 275 276 277 277 278 278 279 279 279 278 278 277 277 276 275 275 274 274 273 272 271 269 268 267 267 267 268 268 269 270 271 272 273 274 276 277 279 281 283 285 286 287 288
339 340 340 341 341 341 341 342 343 344 345 346 347 347 344 338 332 325 319 315 311 307 302 299 295 292 290 289 287 286 284 282 280 279 278 277 276 276 276 277 277 277 277 278 278 278 279 279 279 279 279 279 278 278 277 277 276 276 275 275 274 272 271 270 269 268 267 267 267 268 269 270 271 272 273 274 276 278 280 282 284 285 286 288 289
339 340 340 340 341 342 343 343 343 344 344 346 346 346 346 344 341 335 329 322 317 312 308 304 300 296 293 290 288 286 284 282 281 280 278 278 277 278 278 279 279 280 280 280 281 281 281 282 281 281 281 280 280 279 278 277 276 276 275 274 273 271 270 269 269 268 268 267 268 268 269 269 270 271 272 275 277 280 281 283 284 286 287 289 289
338 338 338 338 339 340 342 342 342 343 343 344 344 344 344 343 343 341 338 333 326 319 313 308 304 300 297 293 290 287 284 282 280 278 277 277 277 278 278 279 281 282 282 283 284 284 285 285 284 284 284 283 282 282 281 280 278 276 273 272 270 269 268 267 267 267 268 268 268 268 268 269 270 272 274 277 278 280 282 284 285 286 287 287 287
337 337 336 337 337 338 339 340 341 341 341 341 340 341 341 341 341 340 339 338 335 330 324 318 311 306 302 298 294 291 287 284 281 279 277 277 277 278 279 280 281 283 284 285 286 287 287 288 287 287 287 286 286 285 284 283 281 277 274 271 269 268 267 266 266 266 266 267 267 267 268 269 271 273 275 277 279 281 282 283 283 284 284 286 289
335 335 335 335 335 335 336 336 337 338 339 338 338 337 337 338 338 338 337 336 335 333 331 327 322 317 312 307 302 298 294 290 287 284 281 279 279 280 281 282 283 284 286 287 288 289 290 290 290 290 289 288 288 288 287 286 284 280 277 273 270 268 267 266 265 265 265 265 266 267 268 270 271 273 275 277 279 279 280 280 281 283 287 289 291
333 333 333 332 332 332 333 333 333 334 335 335 335 335 334 334 334 333 333 332 330 329 328 326 325 323 321 317 313 308 303 299 294 290 286 283 282 281 282 283 283 285 286 288 290 291 293 293 293 293 292 291 290 290 289 287 285 282 279 275 272 270 268 268 267 266 266 266 266 266 267 268 270 272 274 274 275 275 277 280 284 287 289 291 292
330 331 331 331 330 330 330 330 331 331 331 331 331 331 330 330 330 330 329 328 327 325 324 323 323 322 321 320 319 317 314 310 304 297 292 287 284 282 283 283 284 285 287 289 292 294 296 297 297 296 295 294 293 293 291 290 288 284 281 277 273 270 269 268 267 267 266 265 264 264 265 266 267 268 269 270 273 277 281 285 287 289 291 294 296
327 329 330 330 330 329 329 329 329 329 329 329 328 328 327 327 327 327 326 326 325 324 323 323 322 322 321 320 320 319 318 316 312 306 300 293 287 284 284 285 286 287 289 291 294 297 299 300 300 299 298 296 295 294 294 292 290 287 283 279 275 272 269 268 267 266 265 263 262 261 261 262 263 265 269 274 279 283 285 287 290 293 296 299 301
324 325 326 328 329 329 328 328 328 328 328 327 327 326 326 326 326 326 325 324 323 322 322 321 321 321 322 322 322 321 320 319 316 312 307 300 292 286 285 285 286 288 290 293 296 299 302 303 303 302 300 297 296 295 295 294 292 289 286 282 278 274 271 268 266 264 261 259 258 257 258 261 266 272 277 280 282 285 288 292 296 299 302 304 306
322 322 323 324 325 327 327 327 327 327 327 327 326 326 325 325 325 324 323 323 322 321 320 320 320 320 321 322 323 324 323 322 319 315 312 306 298 289 285 284 286 287 290 294 297 301 304 305 305 303 301 299 298 297 295 294 292 289 286 282 278 274 269 265 262 259 257 256 257 261 266 271 275 277 279 282 285 290 295 298 301 304 306 308 310
319 320 321 321 322 323 324 325 325 326 326 326 326 325 325 324 323 323 322 321 321 320 319 318 319 319 320 321 322 323 323 323 321 317 313 309 302 293 285 283 285 286 289 294 298 302 305 306 306 304 302 301 299 298 296 294 291 289 286 282 278 273 269 265 263 263 265 267 269 271 272 273 275 279 284 289 294 297 300 302 305 307 309 309 310
316 317 318 319 319 320 321 322 323 324 324 324 325 325 324 323 322 322 321 320 319 318 317 317 317 317 318 319 321 322 322 322 322 319 315 310 304 296 287 283 283 285 288 292 297 301 304 306 305 304 302 301 300 298 296 294 292 290 288 285 284 282 280 279 276 275 274 272 271 271 272 277 282 288 293 296 299 301 304 307 308 309 310 310 311
312 314 315 315 316 317 317 318 320 321 321 322 323 323 323 323 322 321 321 320 319 318 317 316 316 316 317 318 320 322 323 323 323 321 317 311 305 297 289 282 280 282 284 288 293 297 300 301 301 300 299 298 297 296 295 293 292 290 288 286 283 280 278 275 273 271 269 269 271 275 281 287 291 294 297 300 303 306 309 310 311 311 312 313 313
307 310 311 313 313 314 315 316 317 318 319 320 321 322 322 322 322 321 321 321 320 319 318 318 317 317 318 319 321 323 324 324 323 322 319 312 305 298 290 282 278 278 280 283 287 290 293 294 294 293 292 291 291 291 290 290 289 287 285 281 276 271 268 265 264 265 268 272 278 283 287 291 293 296 300 304 307 309 311 311 312 313 314 315 316
304 306 308 310 311 312 313 314 314 315 316 318 319 320 321 321 322 321 321 321 321 320 319 319 318 318 318 319 320 322 324 324 324 323 320 314 307 300 291 283 276 274 275 277 280 282 284 285 285 285 285 285 285 285 284 284 283 281 278 275 270 265 262 261 261 265 271 276 281 284 287 290 295 299 303 306 308 310 311 312 313 314 315 317 318
301 302 304 306 308 310 311 312 312 313 314 316 317 319 320 320 321 321 321 321 321 320 320 320 319 319 318 319 319 321 323 325 325 324 321 316 309 302 293 284 276 271 270 272 273 275 277 278 278 279 279 279 280 280 278 277 275 273 270 268 265 263 261 261 263 267 271 275 279 283 288 292 297 301 304 306 308 309 311 313 314 316 318 319 320
298 299 301 303 304 306 308 309 310 311 312 314 315 317 318 319 320 320 319 319 319 319 320 319 319 319 318 318 318 320 322 324 325 325 322 318 312 304 296 286 277 270 267 267 268 269 270 271 272 273 273 273 273 273 272 270 267 265 263 262 261 260 259 260 263 266 270 274 279 284 289 293 297 301 304 306 308 310 312 315 317 319 321 322 322
294 296 298 300 301 303 304 306 308 309 310 311 313 315 316 317 317 317 317 317 318 318 319 319 318 318 317 317 318 319 320 322 325 325 323 320 314 307 299 290 280 271 265 264 264 265 265 267 268 268 268 268 267 266 266 264 263 261 260 258 257 257 257 259 263 267 271 275 279 284 289 293 297 301 303 306 308 311 313 316 318 321 322 323 324
291 293 295 297 299 300 302 303 305 307 308 309 310 312 314 315 316 316 316 316 316 317 318 318 318 318 317 318 318 319 319 321 323 325 324 320 316 310 302 293 284 274 266 262 262 262 262 263 265 266 266 265 263 262 261 261 260 260 260 258 257 256 257 260 264 268 272 276 280 285 289 293 296 299 302 305 308 310 313 316 318 320 322 323 325
288 290 292 294 297 299 300 301 303 304 306 307 309 310 312 314 314 314 314 314 315 316 317 318 318 318 318 318 318 319 319 320 322 324 324 322 317 312 305 296 288 279 270 263 260 260 260 260 262 263 264 264 262 259 258 258 259 260 260 259 258 258 258 261 264 268 272 276 280 285 289 292 295 298 300 303 306 309 311 314 316 319 321 322 324
286 288 290 293 295 297 298 299 301 302 304 305 307 309 311 312 312 312 313 314 314 315 317 318 318 318 317 318 318 319 319 320 320 322 324 323 318 313 307 299 291 282 274 265 260 258 258 258 259 259 261 261 260 259 257 256 257 259 260 260 260 260 261 262 265 268 271 275 279 283 287 290 293 295 298 302 305 307 310 312 315 317 319 321 324
285 287 289 292 294 296 297 298 299 300 301 303 305 307 309 311 311 311 312 313 313 314 316 317 317 317 317 317 318 318 319 319 320 321 323 323 320 315 309 303 294 286 278 269 262 258 256 256 255 256 257 258 258 257 256 255 255 257 259 261 262 262 263 265 266 268 272 275 278 281 284 287 290 293 297 300 303 305 308 310 313 315 318 320 322
284 286 288 290 292 293 295 296 297 298 299 301 303 306 308 309 309 310 311 312 312 313 315 316 317 317 316 316 317 318 319 319 320 320 322 323 321 316 311 305 298 289 281 272 265 258 255 253 253 253 253 254 255 256 255 254 254 256 257 260 261 262 264 266 268 270 272 275 277 280 283 286 289 292 295 298 301 303 306 309 311 314 317 319 321
282 284 286 288 289 291 292 294 295 296 297 299 302 305 307 308 308 309 310 311 311 312 314 315 316 316 315 315 316 317 319 319 320 320 321 322 322 318 312 307 301 293 284 276 268 261 255 252 251 251 251 251 252 253 254 253 254 255 256 258 260 262 263 265 267 270 272 274 277 280 283 286 289 292 294 297 299 302 305 307 310 313 315 318 320
281 283 284 286 287 289 290 292 293 294 296 298 300 303 305 306 307 308 309 310 310 311 313 314 315 315 314 314 315 316 318 319 320 320 321 322 321 319 314 308 303 296 288 279 272 265 258 253 251 251 251 250 250 251 251 252 252 253 255 256 258 261 262 264 266 269 271 274 276 279 282 285 288 290 293 295 298 301 303 306 309 312 314 317 319
280 281 282 284 285 287 289 290 292 293 295 297 299 301 303 305 306 307 308 309 309 310 312 314 315 314 314 314 314 316 318 319 320 320 321 321 321 319 315 310 304 298 291 283 276 269 263 257 253 251 250 250 249 249 250 251 252 253 254 255 257 259 261 263 265 267 270 272 275 277 280 284 286 289 292 294 297 299 302 305 308 311 313 315 318
279 280 281 283 284 286 288 289 291 292 294 296 298 300 302 304 305 306 307 308 309 310 311 313 314 314 314 313 314 315 317 320 321 321 321 321 321 320 316 311 306 299 292 286 280 274 267 261 256 252 250 250 250 249 249 250 251 252 253 255 256 258 259 261 264 266 268 270 273 275 278 282 285 288 291 293 296 298 301 304 307 310 312 314 316
279 280 281 283 284 286 287 288 289 291 293 294 297 299 301 303 304 305 306 307 308 309 311 312 314 314 313 313 313 314 317 319 321 321 321 321 321 320 317 313 308 301 293 287 283 278 272 266 260 255 252 251 251 250 250 250 250 251 253 254 256 257 259 260 262 265 267 269 271 274 277 280 283 286 289 292 294 297 300 303 305 308 310 312 315